www.pogodaiklimat.ru

Погода и климат >> Архив погоды >> Россия >> Архангельская область >> Лешуконское


ПОГОДА в Лешуконском

  • Прогноз погоды в Лешуконском
  • Монитор погоды в Лешуконском

АРХИВ ПОГОДЫ в Лешуконском

Время (UTC), дата Ветер
(напр.,м/с)
 
Видим.   Явления Облачность Т
(С)
Тd
(С)
f
(%)
Тe
(С)
Тes
(С)
Комфортность P
(гПа)
Po
(гПа)
Тmin
(С)
Tmax
(С)
R
(мм)
R24
(мм)
S
(см)
18 14.09 С 2 4000 м слаб. ливневой дождь 10/10 210 м
[Cb cap]
+11.0 +10.8 99 +10 +10 991.4 982.9
21 14.09 СЗ 1 4000 м слаб. ливневой дождь 10/10 120 м
[Cb cap]
+10.7 +10.3 97 +10 +10 988.1 979.7
00 15.09 СЗ 2 20 км {ливн. осадки} 10/10 120 м
[Cb cap]
+10.7 +10.3 97 +9 +9 986.9 978.5
03 15.09 З 2 20 км 10/10 120 м
[St]
+10.5 +9.9 96 +9 +9 984.5 976.1 +10.2 10
06 15.09 З 2 4000 м слаб. морось 10/10 120 м
[St]
+10.3 +9.7 96 +9 +9 984.1 975.7 +10.0
09 15.09 Ю 3 10 км слаб. ливневой дождь {морось} 10/10 180 м
[Cb cap]
+10.8 +10.2 96 +9 +9 984.0 975.6
12 15.09 ЮЗ 5 50 км в посл. час ливневой дождь {морось} 10/10 240 м
[Cb cap]
+11.0 +10.2 95 +8 +8 984.1 975.7
15 15.09 ЮЗ 6
{11}
10 км слаб. ливневой дождь 10/10 270 м
[Cb cap]
+8.8 +8.2 96 +5 +5 984.5 976.1 +11.2 12
18 15.09 ЮЗ 8
{12}
4000 м слаб. ливневой дождь 10/10 270 м
[Cb cap]
+8.1 +7.5 96 +3 +3 984.5 976.1
21 15.09 ЮЗ 6
{12}
4000 м слаб. ливневой дождь 10/10 360 м
[Cb cap]
+7.1 +6.2 94 +3 +3 984.1 975.7
00 16.09 З 6
{12}
10 км слаб. ливневой дождь 10/10 360 м
[Cb cap]
+7.0 +6.1 94 +2 +2 984.2 975.8
03 16.09 ЮЗ 6
{11}
4000 м слаб. ливневой дождь 10/10 240 м
[Cb cap]
+6.1 +5.4 95 +1 +1 984.8 976.2 +5.8 11
06 16.09 ЮЗ 6
{11}
10 км слаб. ливневой дождь 10/4 300 м
[Cb cap Ac trans]
+5.3 +3.9 91 0 0 985.4 976.8 +4.6
09 16.09 Ю 4
{11}
50 км {ливн. осадки} 10/4 300 м
[Cb cap Ac trans]
+6.4 +5.3 93 +3 +3 985.7 977.1
12 16.09 Ю 3 50 км {ливн. осадки} 10/8 960 м
[Cb cap Ac trans]
+7.8 +6.0 88 +5 +5 985.9 977.5
15 16.09 Ю 3 50 км в посл. час ливневой дождь 10/6 1200 м
[Cb cap Ac trans]
+6.9 +6.0 94 +4 +4 986.1 977.7 +8.0 3
18 16.09 ЮВ 2 50 км {ливн. осадки} 10/6 1110 м
[Cb cap Ac trans]
+6.1 +5.2 94 +4 +4 986.1 977.5
21 16.09 ЮВ 2 50 км 10/6 870 м
[Cb cap Ac trans]
+5.6 +4.9 95 +3 +3 985.7 977.1
00 17.09 В 2 50 км 10/6 660 м
[Sc diur, vesp Ac trans Ci fib]
+4.8 +4.3 97 +2 +2 985.7 977.1
03 17.09 штиль 0 10 км 10/10 90 м
[St]
+4.9 +4.4 97 +4 +4 986.2 977.6 +4.6
06 17.09 СВ 1 50 км 10/6 180 м
[Cb cap Ac trans]
+6.3 +4.7 89 +5 +6 987.4 978.8 +4.3
09 17.09 С 2 50 км 10/6 660 м
[Cb cap Ac trans]
+8.3 +4.7 78 +6 +7 988.6 980.8
12 17.09 СЗ 2 50 км 10/6 960 м
[Cb cap Ac trans]
+8.4 +2.5 66 +7 +7 989.7 981.2
15 17.09 СЗ 1 50 км 10/6 1020 м
[Cb cap Ac trans]
+8.0 +3.6 74 +7 +7 990.5 982.0 +8.7
18 17.09 штиль 0 50 км 9/9 1000 м
[Sc diur, vesp]
+6.9 +4.8 86 +6 +6 991.6 983.1
21 17.09 СЗ 2 50 км 10/10 270 м
[St]
+6.6 +5.5 93 +4 +4 992.1 983.6
00 18.09 СЗ 3 50 км 9/9 360 м
[Sc]
+4.9 +3.0 87 +1 +1 993.8 985.1
03 18.09 СЗ 4 50 км 6/0
[Ac trans]
+2.9 +2.1 94 -2 -2 995.2 986.5 +2.7
06 18.09 СЗ 2 50 км 6/3 600 м
[Sc Ci fib]
+4.4 +1.6 82 +2 +3 996.6 987.9 +2.4
09 18.09 СЗ 4 50 км 8/4 600 м
[Sc Ci fib]
+7.1 -1.0 56 +4 +5 997.7 989.2
12 18.09 СЗ 3 50 км 10/4 600 м
[Cu Sc Ac trans Ci fib]
+8.4 -2.6 46 +6 +7 998.4 989.9
15 18.09 СЗ 2 50 км 10/0
[Ac trans Ci fib]
+5.1 +1.9 80 +3 +3 999.6 990.8 +8.8
18 18.09 З 3 50 км 3/0
[Ac lent]
+1.6 +0.8 94 -3 -3 1000.4 991.5
21 18.09 З 3 50 км 3/0
[As op]
+0.9 +0.1 94 -4 -4 1001.4 992.5
00 19.09 З 2 50 км ясно -1.1 -1.5 97 -5 -5 1001.6 992.5
03 19.09 З 2 4000 м дымка 6/4 200 м
[Frnb Ac trans]
-1.7 -2.0 98 -6 -6 1001.8 992.9 -2.5
06 19.09 З 2 1000 м дымка {туман} 10/10 90 м
[St]
+1.0 +0.5 96 -3 -3 1002.0 993.1
09 19.09 З 4 50 км 10/4 1000 м
[Cb cap Ac trans Ci fib]
+5.8 +1.0 71 +2 +3 1002.7 993.9
12 19.09 З 5 50 км {ливн. осадки} 10/6 840 м
[Cb cap Ac trans Ci fib]
+5.7 -1.0 62 +2 +2 1004.4 995.6
15 19.09 З 3
{10}
50 км 10/6 720 м
[Cb cap Ac trans Ci fib]
+4.9 -1.7 62 +2 +2 1005.0 996.2 +6.8 0.0
18 19.09 З 3 50 км 3/0
[Ci fib]
+0.8 0.0 94 -4 -4 1005.4 996.5
21 19.09 З 4 50 км 3/0
[Ci fib]
-0.2 -1.1 94 -6 -6 1005.3 996.4
00 20.09 ЮЗ 2 50 км 3/0
[Ci fib]
-1.5 -2.4 94 -6 -6 1005.3 996.4
03 20.09 ЮЗ 2 50 км 10/4 600 м
[Cb cap Ac trans]
-1.4 -2.0 96 -5 -5 1005.1 996.2 -2.0
06 20.09 Ю 2 50 км 10/0
[Ac trans Ci fib]
+1.2 +0.1 92 -2 -1 1004.6 995.7
09 20.09 Ю 4 10 км слаб. ливневой дождь 10/10 330 м
[Cb cap]
+3.3 +0.4 81 -1 -1 1004.3 995.5
12 20.09 З 4 50 км в посл. час ливневой дождь 10/6 420 м
[Cb cap Ac trans Ci fib]
+4.8 -0.2 70 +1 +1 1004.0 995.2
15 20.09 Ю 2 50 км {ливн. осадки} 10/3 600 м
[Sc diur, vesp Ac trans Ci fib]
+3.4 +0.2 80 +1 +1 1003.3 994.5 +5.6 0.3
18 20.09 Ю 3 50 км {ливн. осадки} 10/0
[Ci fib]
+1.5 -0.7 85 -3 -3 1002.4 993.5
21 20.09 Ю 3 10 км слаб. ливневой снег 10/6 630 м
[Cb cap Ac trans]
+1.4 0.0 90 -3 -3 1000.5 991.6
00 21.09 Ю 3 4000 м слаб. ливневой снег 10/10 210 м
[Cb cap]
+0.5 -0.3 94 -4 -4 999.1 990.2
03 21.09 Ю 3 2000 м слаб. ливневой дождь 10/10 150 м
[Cb cap]
+0.6 0.0 96 -4 -4 998.2 989.4 0.0 1
06 21.09 Ю 2 10 км слаб. ливневой дождь 10/10 210 м
[Cb cap]
+1.4 +0.9 96 -2 -2 998.0 989.2
09 21.09 ЮЗ 2 10 км слаб. ливневой дождь 10/10 360 м
[Cb cap]
+3.3 +1.8 90 0 0 998.0 989.3
12 21.09 ЮЗ 1 50 км в посл. час ливневой дождь 10/10 420 м
[Cb cap]
+3.8 +2.6 92 +2 +2 998.5 989.8

 

Местоположение метеостанции Лешуконское (Архангельская область, Россия): широта 64.90 долгота 45.77 высота над уровнем моря 71 м.

В архиве по умолчанию представлена погода в Лешуконском за последнюю неделю. Архивные данные за месяц целиком и за предыдущие месяцы, начиная с января 2011 года, Вы можете получить, выбрав интересующий диапазон дат из раскрывающегося списка и нажав кнопку "Ввод!".


*Определитесь, кто Вы:
робот инопланетянин человек

Внимание! Время в таблицах - всемирное. Для получения местного времени необходимо прибавить поправку, которая равна 3 ч.

Смотрите также архив погоды в соседних городах и на ближайших метеорологических станциях:

Погода в Койнасе (Архангельская область, Россия) (90 км)
Погода в Мосеево (Архангельская область, Россия) (99 км)
Погода в Пинеге (Архангельская область, Россия) (113 км)
Погода в Карпогорах (Архангельская область, Россия) (120 км)
Погода в Мезене (Архангельская область, Россия) (130 км)
Погода в Суре (Архангельская область, Россия) (147 км)
Погода в Кепино (Архангельская область, Россия) (192 км)
Погода в Вендинге (Коми, Россия) (192 км)
Погода в Неси (Ненецкий АО, Россия) (196 км)
Погода в Абрамовском маяке (Архангельская область, Россия) (201 км)

Пояснения к столбцам:

Ветер - указаны скорость ветра в м/с - средняя за 10 мин, порывы в срок и между сроками (в фигурных скобках) и направление, откуда дует ветер: С - северный, СВ - северо-восточный, В - восточный, ЮВ - юго-восточный, Ю - южный, ЮЗ - юго-западный, З - западный, СЗ - северо-западный.
Видимость - горизонтальная дальность видимости в метрах или километрах. При видимости от 1 до 10 км при отсутствии осадков обычно наблюдается дымка, при ухудшении видимости до 1 км и менее - туман. В сухую погоду видимость может ухудшаться дымом, пылью или мглою.
Явления - указаны атмосферные явления, наблюдавшиеся в срок или в последний час перед сроком; фигурными скобками обозначены явления, наблюдавшиеся между сроками (за 1-3 часа до срока); квадратными скобками обозначены град или гололедные отложения с указанием их диаметра в мм.
Облачность - указаны через наклонную черту общая и нижняя облачность в баллах и высота нижней границы облаков в метрах; квадратными скобками обозначены формы облаков: Ci - перистые, Cs - перисто-слоистые, Cc - перисто-кучевые, Ac - высококучевые, As - высокослоистые, Sc - слоисто-кучевые, Ns - слоисто-дождевые, Cu - кучевые, Cb - кучево-дождевые. Подробнее классификацию облаков см. в Атласе облаков (PDF).
T - Температура воздуха - температура, измеренная на высоте 2 м над землей.
Td - Температура точки росы - температура, при понижении до которой содержащийся в воздухе водяной пар достигнет насыщения.
f - Относительная влажность воздуха - влажноcть воздуха, измеренная на высоте 2 м над землей.
Te - Эффективная температура - температура, которую ощущает одетый по сезону человек в тени. Характеристика душности погоды. При расчете учитывается влияние влажности воздуха и скорости ветра на теплоощущения человека.
Tes - Эффективная температура на солнце - температура, которую ощущает человек, с поправкой на солнечный нагрев. Характеристика знойности погоды. Зависит от высоты солнца над горизонтом, облачности и скорости ветра. Ночью, в пасмурную погоду, а также при ветре 12 м/с и более поправка равна нулю.
P - Атмосферное давление - приведенное к уровню моря атмосферное давление.
Po - Атмосферное давление - измеренное на уровне метеостанции атмосферное давление.
Tmin - Минимальная температура - минимум температуры воздуха на высоте 2 м над землей.
Tmax - Максимальная температура - максимум температуры воздуха на высоте 2 м над землей.
R - Количество осадков - Количество выпавших осадков за период времени, мм. При наведении курсора мыши на число - период времени, за который выпало указанное количество осадков.
R24 - Количество осадков - Количество выпавших осадков за 24 часа, мм.
S - Снежный покров - Высота снежного покрова, см. При наведении курсора мыши на число - состояние снежного покрова и степень покрытия местности в баллах.